www.pogodaiklimat.ru

Погода и климат >> Архив погоды >> Беларусь >> Новогрудок


ПОГОДА в Новогрудке

  • Прогноз погоды в Новогрудке
  • Монитор погоды в Новогрудке
  • Климат города

АРХИВ ПОГОДЫ в Новогрудке

Время (UTC), дата Ветер
(напр.,м/с)
 
Видим.   Явления Облачность Т
(С)
Тd
(С)
f
(%)
Тe
(С)
Тes
(С)
Комфортность P
(гПа)
Po
(гПа)
Тmin
(С)
Tmax
(С)
R
(мм)
R24
(мм)
S
(см)
18 12.09 З 4 8000 м дымка 10 баллов +19.0 +16.4 85 +20 +20 1002.0 969.8 +24.0
21 12.09 З 2 8000 м ливневой дождь 10 баллов +15.0 +14.4 96 +15 +15 1003.0 970.3
00 13.09 З 2 6000 м ливневой дождь 10 баллов +13.1 +12.5 96 +12 +12 1004.0 971.1
03 13.09 СЗ 2 8000 м дымка 10 баллов +13.0 +12.4 96 +12 +12 1004.0 971.0 +12.9
06 13.09 З 4 7000 м ливневой дождь 10 баллов +13.2 +12.6 96 +11 +11 1005.0 972.0 +12.6 0.8
09 13.09 ЮЗ 4 10 км 10 баллов +15.0 +12.7 86 +14 +14 1006.0 973.2
12 13.09 ЮЗ 5
{11}
10 км 10 баллов +16.3 +9.9 66 +15 +15 1006.0 973.3
15 13.09 ЮЗ 6
{10}
10 км 3 балла +16.9 +8.8 59 +16 +16 1005.0 972.4
18 13.09 Ю 4
{10}
10 км 3 балла +12.9 +9.5 80 +11 +11 1005.0 972.0 +19.0 0.7
21 13.09 Ю 5 10 км ливневой дождь 10 баллов +13.5 +9.4 76 +12 +12 1002.0 969.1
00 14.09 ЮЗ 7
{16}
8000 м ливневой дождь 10 баллов +12.4 +10.3 87 +9 +9 1001.0 968.1
03 14.09 Ю 5
{11}
10 км 3 балла +12.0 +9.2 83 +10 +10 1001.0 968.0 +11.9
06 14.09 Ю 5
{11}
10 км 10 баллов +12.9 +9.3 79 +11 +11 1001.0 968.1 +11.9 1
09 14.09 ЮЗ 6
{13}
10 км 10 баллов +16.4 +10.9 70 +15 +15 1002.0 969.5
12 14.09 ЮЗ 5
{14}
8000 м ливневой дождь 10 баллов +16.0 +13.1 83 +15 +15 1001.0 968.5
15 14.09 Ю 5
{11}
8000 м ливневой дождь 10 баллов +15.3 +13.8 91 +14 +14 1001.0 968.4
18 14.09 ЮЗ 4
{10}
8000 м ливневой дождь 10 баллов +15.2 +13.6 90 +14 +14 1001.0 968.4 +17.6 3
21 14.09 ЮЗ 4
{10}
4000 м ливневой дождь 10 баллов +12.7 +11.9 95 +11 +11 1002.0 969.1
00 15.09 ЮЗ 4 7000 м дымка 10 баллов +11.6 +10.8 95 +9 +9 1002.0 968.9
03 15.09 ЮЗ 5
{10}
6000 м ливневой дождь 10 баллов +9.8 +9.0 95 +6 +6 1003.0 969.7 +9.7
06 15.09 ЮЗ 8
{14}
9000 м дымка 10 баллов +9.8 +8.7 93 +6 +6 1004.0 970.6 +9.6 8
09 15.09 ЮЗ 9
{18}
10 км 10 баллов +12.5 +8.0 74 +9 +9 1006.0 972.9
12 15.09 ЮЗ 7
{17}
10 км 10 баллов +12.3 +6.8 69 +10 +10 1009.0 975.7
15 15.09 ЮЗ 6
{15}
10 км 10 баллов +12.5 +7.8 73 +10 +10 1011.0 977.7
18 15.09 ЮЗ 4
{12}
10 км 3 балла +10.7 +8.1 84 +8 +8 1013.0 979.4 +13.3
21 15.09 ЮЗ 4 10 км 10 баллов +9.8 +8.1 89 +7 +7 1015.0 981.3
00 16.09 ЮЗ 4 10 км 10 баллов +9.6 +8.4 92 +7 +7 1016.0 982.2
03 16.09 Ю 3 8000 м дымка 6 баллов +8.3 +7.7 96 +5 +5 1016.0 982.0 +8.2
06 16.09 Ю 3 8000 м дымка 3 балла +9.5 +8.9 96 +7 +8 1018.0 984.1 +7.7
09 16.09 Ю 4 10 км 10 баллов +15.0 +10.4 74 +14 +14 1018.0 984.8
12 16.09 Ю 3 10 км 10 баллов +15.5 +8.9 65 +15 +15 1018.0 984.8
15 16.09 Ю 3 10 км 10 баллов +14.2 +9.8 75 +13 +13 1018.0 984.7
18 16.09 ЮВ 3 10 км 10 баллов +11.9 +9.5 85 +10 +10 1019.0 985.4 +15.7
21 16.09 ЮВ 2 10 км 10 баллов +11.2 +8.4 83 +10 +10 1018.0 984.3
00 17.09 В 1 10 км 10 баллов +10.9 +9.0 88 +11 +11 1016.0 982.4
03 17.09 В 3 10 км 10 баллов +10.8 +9.2 90 +9 +9 1014.0 980.4 +10.7
06 17.09 ЮВ 4 8000 м дымка 10 баллов +11.6 +10.3 92 +9 +9 1014.0 980.5 +10.5
09 17.09 В 1 10 км 10 баллов +13.0 +11.1 88 +13 +13 1013.0 979.7
12 17.09 ЮВ 2 6000 м дождь 10 баллов +13.6 +12.8 95 +13 +13 1012.0 978.9
15 17.09 В 2 3500 м дождь 10 баллов +12.9 +12.4 97 +12 +12 1011.0 977.8
18 17.09 СВ 2 н/о морось 10 баллов +12.8 +12.6 99 +12 +12 1009.0 975.9 +14.3 7
21 17.09 В 2 200 м туман н/о +13.2 +13.2 100 +12 +12 1006.0 973.0
00 18.09 Ю 4 3500 м дождь 10 баллов +14.9 +14.6 98 +14 +14 1001.0 968.4
03 18.09 Ю 6
{10}
8000 м дымка 10 баллов +13.5 +12.7 95 +11 +11 999.0 966.3 +12.6
06 18.09 Ю 9
{15}
8000 м ливневой дождь 10 баллов +11.6 +10.3 92 +8 +8 997.0 964.1 +11.5 6
09 18.09 Ю 11
{18}
4000 м дождь 10 баллов +10.5 +9.3 92 +6 +6 998.0 964.9
12 18.09 ЮЗ 10
{23}
3500 м дождь 10 баллов +10.9 +10.1 95 +7 +7 1000.0 966.9
15 18.09 ЮЗ 10
{21}
3400 м дождь 10 баллов +10.8 +10.0 95 +6 +6 1001.0 967.9
18 18.09 ЮЗ 9
{21}
7000 м ливневой дождь 10 баллов +9.2 +8.4 95 +4 +4 1006.0 972.5 +13.5 13
21 18.09 ЮЗ 8
{21}
10 км ливневой дождь 10 баллов +9.4 +8.3 93 +5 +5 1010.0 976.4
00 19.09 ЮЗ 6
{14}
10 км 10 баллов +9.0 +7.9 93 +5 +5 1013.0 979.2
03 19.09 ЮЗ 5
{12}
10 км 6 баллов +8.6 +7.7 94 +5 +5 1014.0 980.2 +8.5
06 19.09 З 5 8000 м дымка 10 баллов +8.8 +8.2 96 +5 +5 1015.0 981.1 +8.3 0.4
09 19.09 Ю 4 10 км 6 баллов +13.0 +8.9 76 +11 +13 1017.0 983.6
12 19.09 ЮЗ 5
{10}
10 км 3 балла +15.5 +8.0 61 +14 +17 1017.0 983.9
15 19.09 З 1 10 км 6 баллов +14.8 +8.3 65 +15 +16 1017.0 983.8

 

Местоположение метеостанции Новогрудок (Гродненская область, Беларусь): широта 53.60 долгота 25.85 высота над уровнем моря 280 м.

В архиве по умолчанию представлена погода в Новогрудке за последнюю неделю. Архивные данные за месяц целиком и за предыдущие месяцы, начиная с января 2011 года, Вы можете получить, выбрав интересующий диапазон дат из раскрывающегося списка и нажав кнопку "Ввод!".

Внимание! Время в таблицах - всемирное. Для получения местного времени необходимо прибавить поправку, которая в Новогрудке равна 3 ч.

Смотрите также архив погоды в соседних городах и на ближайших метеорологических станциях:

Погода в Лиде (Гродненская область, Беларусь) (48 км)
Погода в Столбцах (Минская область, Беларусь) (60 км)
Погода в Воложине (Минская область, Беларусь) (70 км)
Погода в Ошмянах (Гродненская область, Беларусь) (92 км)
Погода в Ганцевичах (Брестская область, Беларусь) (102 км)
Погода в Волковыске (Гродненская область, Беларусь) (104 км)
Погода в Ивацевичах (Брестская область, Беларусь) (105 км)
Погода в Гродно (Гродненская область, Беларусь) (119 км)
Погода в Vilnius (Литва) (120 км)
Погода в Минске (город Минск, Беларусь) (123 км)

Пояснения к столбцам:

Ветер - указаны скорость ветра в м/с - средняя за 10 мин, порывы в срок и между сроками (в фигурных скобках) и направление, откуда дует ветер: С - северный, СВ - северо-восточный, В - восточный, ЮВ - юго-восточный, Ю - южный, ЮЗ - юго-западный, З - западный, СЗ - северо-западный.
Видимость - горизонтальная дальность видимости в метрах или километрах. При видимости от 1 до 10 км при отсутствии осадков обычно наблюдается дымка, при ухудшении видимости до 1 км и менее - туман. В сухую погоду видимость может ухудшаться дымом, пылью или мглою.
Явления - указаны атмосферные явления, наблюдавшиеся в срок или в последний час перед сроком; фигурными скобками обозначены явления, наблюдавшиеся между сроками (за 1-3 часа до срока); квадратными скобками обозначены град или гололедные отложения с указанием их диаметра в мм.
Облачность - указаны через наклонную черту общая и нижняя облачность в баллах и высота нижней границы облаков в метрах; квадратными скобками обозначены формы облаков: Ci - перистые, Cs - перисто-слоистые, Cc - перисто-кучевые, Ac - высококучевые, As - высокослоистые, Sc - слоисто-кучевые, Ns - слоисто-дождевые, Cu - кучевые, Cb - кучево-дождевые. Подробнее классификацию облаков см. в Атласе облаков (PDF).
T - Температура воздуха - температура, измеренная на высоте 2 м над землей.
Td - Температура точки росы - температура, при понижении до которой содержащийся в воздухе водяной пар достигнет насыщения.
f - Относительная влажность воздуха - влажноcть воздуха, измеренная на высоте 2 м над землей.
Te - Эффективная температура - температура, которую ощущает одетый по сезону человек в тени. Характеристика душности погоды. При расчете учитывается влияние влажности воздуха и скорости ветра на теплоощущения человека.
Tes - Эффективная температура на солнце - температура, которую ощущает человек, с поправкой на солнечный нагрев. Характеристика знойности погоды. Зависит от высоты солнца над горизонтом, облачности и скорости ветра. Ночью, в пасмурную погоду, а также при ветре 12 м/с и более поправка равна нулю.
P - Атмосферное давление - приведенное к уровню моря атмосферное давление.
Po - Атмосферное давление - измеренное на уровне метеостанции атмосферное давление.
Tmin - Минимальная температура - минимум температуры воздуха на высоте 2 м над землей.
Tmax - Максимальная температура - максимум температуры воздуха на высоте 2 м над землей.
R - Количество осадков - Количество выпавших осадков за период времени, мм. При наведении курсора мыши на число - период времени, за который выпало указанное количество осадков.
R24 - Количество осадков - Количество выпавших осадков за 24 часа, мм.
S - Снежный покров - Высота снежного покрова, см. При наведении курсора мыши на число - состояние снежного покрова и степень покрытия местности в баллах.